Tracking 25734 objects as of 26-May-2022
HD Live streaming from Space Station
objects crossing your sky now

COSMOS 2251 DEB

Track COSMOS 2251 DEB now!
10-day predictions


NORAD ID: 35893
Int'l Code: 1993-036AUG
Perigee: 683.5 km
Apogee: 780.1 km
Inclination: 73.7 °
Period: 99.3 minutes
Semi major axis: 7102 km
RCS: 0.0146 m2 (small)
Launch date: June 16, 1993
Source: Commonwealth of Independent States (former USSR) (CIS)
Launch site: PLESETSK MISSILE AND SPACE COMPLEX (PKMTR)

Note: This is SATELLITE DEBRIS
aabbcc
Your satellite tracking list
Your tracking list is empty




NASA's NSSDC Master Catalog

Two Line Element Set (TLE):
1 35893U 93036AUG 22144.47492081  .00006410  00000-0  16029-2 0  9998
2 35893  73.6528 217.7639 0067989 253.0911 106.2786 14.50304153469337
Source of the keplerian elements: AFSPC